{"data":{"norad_id":64723,"intl_designator":"2025-143A","name":"MTG-S1","alt_names":[],"object_type":"PAYLOAD","status":"ACTIVE","operator":null,"country":"EUME","launch_date":"2025-07-01","launch_site_code":"AFETR","launch_vehicle":null,"mission":null,"orbit_class":"UNKNOWN","rcs_meters":null,"size_class":null,"mass_kg":null,"dimensions":null,"purposes":["comms","earth_obs"],"wikipedia_slug":null,"has_3d_model":false,"image_url":null,"decayed_at":null,"tle_current":{"epoch":"2026-05-25T03:43:39.852768Z","epoch_age_seconds":72353,"freshness":"FRESH","line1":"1 64723U 25143A   26145.15532237 -.00000035  00000+0  00000+0 0  9990","line2":"2 64723   0.6241 334.2586 0001451  23.7139 297.2479  1.00269900  3183","mean_motion":1.002699,"eccentricity":0.0001451,"inclination_deg":0.6241,"raan_deg":334.2586,"arg_perigee_deg":23.7139,"mean_anomaly_deg":297.2479,"bstar":0,"rev_number":318,"period_min":1436.1239015896,"perigee_km":35781.005224112,"apogee_km":35793.241582681,"semimajor_km":42165.260403397,"source":"CELESTRAK","updated_at":"2026-05-25T13:38:14.154587Z"}}}